Location: Chris' Backyard Observatory
(47.3045°N, 122.2839°W)
Time: 22:19:14
(UTC-07:00)

Daily predictions for brighter satellites

Satellite Brightness Start Highest point End
(mag) Time Altitude Azimuth Time Altitude Azimuth Time Altitude Azimuth
Cosmos 921 Rocket 3.1 21:40:22 10° NNW 21:44:53 78° ENE 21:49:23 10° SSE
Resurs 01 Rocket 3.2 21:41:06 10° SSW 21:45:10 35° W 21:49:16 10° NNW
Terra 3.6 21:42:49 10° ESE 21:46:10 20° ENE 21:49:33 10° NNE
Cosmos 1048 Rocket 4.4 21:46:06 10° SSW 21:51:25 73° WNW 21:56:50 10° NNE
USA 215 4.0 21:47:34 10° SSE 21:53:45 44° SW 21:59:59 10° WNW
Cosmos 1825 Rocket 4.3 21:50:38 10° SSW 21:55:02 58° WNW 21:59:27 10° N
Cosmos 1315 Rocket 3.5 21:53:03 10° SSW 21:57:05 60° WNW 22:01:11 10° N
CENTAUR R/B 4.0 21:50:22 10° NW 21:57:33 42° NE 22:05:24 10° ESE
SL-8 R/B 3.9 21:53:16 10° SW 21:57:57 52° SSE 22:02:39 10° ENE
Cosmos 1461 4.4 21:55:06 10° SSE 21:58:40 22° ESE 22:02:19 10° ENE
NOSS 3-4 (A) 4.4 21:58:07 10° SSE 22:03:10 27° ESE 22:08:22 10° ENE
NOSS 3-4 (C) 4.4 21:58:14 10° SSE 22:03:15 27° ESE 22:08:26 10° ENE
CZ-2C R/B 4.5 22:01:08 10° ESE 22:06:04 30° ENE 22:10:56 10° N
ARGOS 3.5 22:01:08 10° S 22:06:32 68° WSW 22:11:58 10° NNW
Cosmos 2278 Rocket 3.0 22:02:33 10° SSE 22:07:26 30° ESE 22:12:19 10° NE
APEX 3.0 22:08:36 10° NNW 22:11:37 65° ENE 22:14:54 12° SE
Cosmos 220 Rocket 4.4 22:09:30 10° S 22:13:29 42° ESE 22:17:28 10° NE
KORONAS-FOTON 3.8 22:16:49 10° S 22:20:42 80° E 22:24:39 10° NNE
Cosmos 1745 Rocket 4.1 22:16:08 10° N 22:22:29 73° E 22:28:39 10° SSE
COSMOS 2406 3.5 22:17:11 10° NNW 22:22:55 67° WSW 22:28:30 10° SSE
SL-08 RB Rocket 4.3 22:18:33 10° S 22:23:08 56° W 22:27:45 10° NNW
SL-14 R/B 3.9 22:20:17 12° SSE 22:23:33 37° E 22:27:13 10° NNE
Cosmos 1844 Rocket 3.0 22:17:59 10° SSW 22:23:39 74° WNW 22:29:20 10° NNE
CARTOSAT-1 4.2 22:21:01 13° SE 22:24:37 42° ENE 22:28:43 10° N
Cosmos 1346 Rocket 4.3 22:21:11 10° NNW 22:24:51 35° W 22:28:33 10° SSW
Cosmos 1238 Rocket 4.3 22:25:24 10° SW 22:27:59 27° WNW 22:30:45 10° NNW
Cosmos-2242 4.4 22:25:15 10° NNW 22:29:18 37° W 22:33:20 10° SSW
SPOT 5 3.1 22:24:53 11° SSE 22:29:48 82° ENE 22:35:09 10° NNW
Cosmos 1844 3.8 22:24:43 10° SSW 22:30:26 84° WNW 22:36:16 10° NNE
SL-27 R/B 4.4 22:28:27 10° N 22:31:14 20° ENE 22:33:50 11° ESE
Lacrosse 5 2.8 22:31:22 10° WSW 22:36:19 53° NNW 22:41:18 10° NE
ATLAS 5 CENTAUR R/B 2.6 22:37:13 13° S 22:40:32 28° ESE 22:44:41 10° ENE
ATLAS 3B R/B 2.9 22:35:23 10° NW 22:41:53 59° WSW 22:47:22 14° SSE
Cosmos 1626 3.1 22:40:50 18° SE 22:42:55 31° E 22:46:14 10° NNE
Helios 1B rocket 2.7 22:39:13 10° NNE 22:43:13 49° E 22:46:22 15° S
Helios 1A 3.1 22:41:42 14° S 22:45:17 73° WSW 22:49:32 10° NNW
SPOT 1/Viking Rocket 3.7 22:41:25 13° S 22:46:04 76° WSW 22:51:15 10° NNW
H-2A R/B 3.3 22:41:22 10° SSW 22:46:18 38° W 22:51:22 10° NNW
Cosmos 1340 3.6 22:45:08 10° NNW 22:48:46 43° W 22:52:11 11° SSW
Cosmos 1842 Rocket 4.0 22:45:22 10° NNW 22:49:39 60° W 22:53:33 12° S
Cosmos 2082 Rocket 2.7 22:46:43 10° NNW 22:52:21 54° ENE 22:56:41 17° SE
Cosmos 1833 Rocket 3.0 22:47:14 10° NNW 22:52:48 60° ENE 22:57:01 18° SE
S3M 4.3 22:46:48 10° SSW 22:53:09 75° W 22:59:36 10° N
Iridium 67 4.4 22:52:57 10° NNE 22:53:53 21° NE 22:53:53 21° NE
Cosmos 1709 Rocket 4.1 22:49:30 10° N 22:55:44 67° E 23:00:24 18° SSE
NOSS 2-2 (C) 4.0 22:55:16 18° S 22:57:31 34° ESE 23:01:27 10° NE
ATLAS 3B CENTAUR R/B 4.4 22:46:44 10° SW 22:57:36 21° S 23:01:25 17° SSE
NOSS 3-2 (A) 4.3 22:50:36 10° NW 22:57:58 60° WSW 23:04:29 17° SSE
CZ-2C R/B 3.3 22:54:26 10° NNE 22:59:28 37° E 23:02:37 20° SSE
Landsat 7 4.2 23:00:13 15° S 23:04:03 61° W 23:08:48 10° NNW
Spot 1 4.2 23:02:42 20° SSE 23:05:45 86° WSW 23:10:27 10° NNW
Cosmos 1455 3.3 23:03:49 10° N 23:07:15 32° ENE 23:09:00 21° ESE
Cosmos 1300 3.3 23:05:02 10° NNW 23:08:46 51° W 23:11:27 17° SSW
Cosmos 1726 4.4 23:09:50 10° NW 23:12:42 21° W 23:15:33 10° SW
ATLAS 2AS CENTAUR R/B 3.9 23:08:53 10° WSW 23:16:39 54° NW 23:24:37 10° NE
Aureole 3 Rocket 4.0 23:11:17 16° S 23:17:15 66° E 23:22:31 10° NNE
Iridium 75 3.9 23:16:13 10° N 23:17:45 53° N 23:17:45 53° N
Cosmos 2221 3.0 23:14:45 10° NNW 23:18:59 55° W 23:21:54 19° SSW
RESURS DK-1 3.0 23:17:45 27° SSE 23:19:20 37° ESE 23:23:11 10° NE
Meteor 1-29 3.0 23:17:42 10° N 23:21:07 78° WNW 23:23:09 22° SSW
Terra 2.2 23:20:16 20° S 23:23:30 60° W 23:28:14 10° NNW
NOSS 3-2 (C) 4.4 23:16:35 10° NW 23:23:55 56° WSW 23:29:39 20° S
Okean 3 Rocket 3.5 23:21:36 23° S 23:24:17 77° E 23:28:40 10° NNE
Cosmos 2251 Rocket 4.2 23:20:32 10° SW 23:25:45 55° WNW 23:31:00 10° NNE
Cosmos 1992 Rocket 4.0 23:20:38 10° NNW 23:25:52 84° WSW 23:28:59 25° SSE
COBE Rocket 4.3 23:27:28 10° NNE 23:32:26 51° E 23:35:05 26° SSE
Cosmos 1328 Rocket 4.2 23:28:47 10° N 23:32:57 43° ENE 23:34:55 26° SE
SAR-Lupe-4 4.1 23:31:59 30° SE 23:33:21 48° ENE 23:36:49 10° N
Cosmos 1328 3.9 23:32:34 23° SSW 23:34:58 72° W 23:38:56 10° N
Cosmos 2228 Rocket 4.3 23:31:41 10° N 23:35:42 32° ENE 23:37:44 22° ESE
Cosmos 2315 Rocket 4.1 23:31:49 16° SSW 23:37:02 81° W 23:43:27 10° N
Cosmos 1461 3.8 23:32:49 10° SW 23:37:27 59° NW 23:42:13 10° NNE
SL-8 R/B 3.8 23:35:34 10° W 23:40:26 81° N 23:45:17 10° E
ADEOS Rocket 4.1 23:37:30 10° NE 23:42:43 30° E 23:45:35 22° SE
CZ-2C R/B 3.9 23:41:41 19° SSW 23:45:39 51° W 23:51:15 10° NNW
Meteor 2-10 Rocket 4.3 23:43:09 10° N 23:48:03 42° ENE 23:50:48 24° SE
Cosmos 1441 Rocket 3.3 23:44:44 10° N 23:48:32 63° ENE 23:49:46 38° SE
CENTAUR R/B 3.2 23:41:02 10° NW 23:48:55 73° SW 23:54:31 24° SSE
Meteor 1-11 4.2 23:45:27 22° S 23:49:15 86° ESE 23:55:06 10° NNE
Cosmos 2184 Rocket 4.1 23:43:17 10° N 23:49:38 71° E 23:53:16 27° SSE
NOSS 2-2 (E) 3.7 23:46:47 10° SW 23:50:41 71° NW 23:55:25 10° NE
Cosmos 2278 Rocket 3.1 23:45:48 10° SW 23:51:17 48° NW 23:56:49 10° NNE
SAR-Lupe-1 4.1 23:50:23 40° SE 23:51:31 66° ENE 23:55:06 10° N
Spot 4 3.9 23:51:21 30° S 23:53:48 79° WSW 23:58:42 10° NNW
